2019-062A

Last updated on Thu Sep 26 2019 01:02:05 GMT+0100 (British Summer Time)

1 44546U 19062A 19268.80029464 -.00000611 00000-0 00000+0 0 9998 2 44546 51.6569 222.5907 0010404 278.4509 160.1903 15.70331402 172
UTC large
Height (km)
Speed (km/s)
/
Latitude / Longitude
Inclination (degrees)
Orbital Period (minutes)
Azimuth
Elevation
Range (km)
Doppler Factor

Next 0 passes for location: London (51.5072 / 0.1276)

Sorry there are no passes over London.